www.pogodaiklimat.ru

Погода и климат >> Архив погоды >> Украина >> Жашков


ПОГОДА в Жашкове

  • Прогноз погоды в Жашкове
  • Монитор погоды в Жашкове

АРХИВ ПОГОДЫ в Жашкове

Время (UTC), дата Ветер
(напр.,м/с)
 
Видим.   Явления Облачность Т
(С)
Тd
(С)
f
(%)
Тe
(С)
Тes
(С)
Комфортность P
(гПа)
Po
(гПа)
Тmin
(С)
Tmax
(С)
R
(мм)
R24
(мм)
S
(см)
15 18.06 СЗ 1 20 км ясно +26.8 +15.5 50 +30 +35 душно 1015.3 989.7
18 18.06 С 1 20 км 3/0
[Ci fib]
+24.4 +16.9 63 +28 +28 душно 1015.4 989.6 +27.8
21 18.06 штиль 0 н/о 3/0
[Ci fib]
+20.6 +16.6 78 +24 +24 комфорт 1016.7 990.5
00 19.06 штиль 0 н/о ясно +19.0 +16.0 83 +20 +20 1016.5 990.2
03 19.06 штиль 0 10 км 4/0
[Ci fib]
+17.8 +15.8 88 +18 +18 1016.5 990.1
06 19.06 штиль 0 20 км ясно +23.4 +16.9 67 +29 +39 душно 1016.2 990.3 +17.8
09 19.06 штиль 0 20 км 8/8 1080 м
[Cu med, cong]
+26.1 +16.3 55 +30 +34 душно 1015.9 990.2
12 19.06 С 1 20 км 5/5 1000 м
[Cu med, cong]
+28.1 +17.9 54 +33 +41 очень
душно
1015.1 989.6
15 19.06 штиль 0 20 км 3/3 1000 м
[Cu hum]
+26.6 +16.2 53 +30 +34 душно 1014.1 988.5
18 19.06 штиль 0 20 км 3/0
[Ci fib]
+24.2 +17.7 67 +28 +28 душно 1014.0 988.2 +28.3
21 19.06 штиль 0 н/о ясно +20.7 +17.3 81 +24 +24 комфорт 1014.7 988.6
00 20.06 штиль 0 н/о ясно +19.5 +16.7 84 +21 +21 комфорт 1014.9 988.7
03 20.06 штиль 0 20 км 3/0
[Ci fib]
+19.2 +16.4 84 +21 +21 комфорт 1014.6 988.4
06 20.06 штиль 0 20 км 3/0
[Ci fib]
+24.8 +18.0 66 +29 +39 душно 1014.1 988.4 +19.0
09 20.06 штиль 0 20 км 4/4 1000 м
[Cu hum]
+27.9 +17.4 53 +32 +46 душно 1013.8 988.3
12 20.06 В 1 20 км 6/6 1050 м
[Cu med, cong]
+27.7 +16.7 51 +31 +38 душно 1013.4 987.9
15 20.06 В 1 20 км 3/3 1000 м
[Cu hum]
+29.3 +17.1 48 +33 +37 душно 1012.4 987.1
18 20.06 штиль 0 20 км ясно +24.9 +18.1 66 +29 +29 душно 1012.9 987.2 +30.0
21 20.06 штиль 0 н/о ясно +21.5 +17.1 76 +25 +25 комфорт 1014.2 988.2
00 21.06 штиль 0 н/о 3/0
[Ac trans]
+19.6 +15.2 76 +21 +21 комфорт 1014.8 988.6
03 21.06 штиль 0 20 км ясно +19.4 +15.3 77 +21 +22 комфорт 1015.3 989.1
06 21.06 штиль 0 20 км ясно +24.9 +15.8 57 +28 +39 жарко 1015.1 989.4 +19.4
09 21.06 штиль 0 20 км ясно +29.1 +14.9 42 +32 +55 опасность
солнечного
удара
1015.0 989.6
12 21.06 ЮВ 1 20 км 3/3 1000 м
[Cu hum]
+31.0 +12.8 33 +32 +44 жарко 1014.4 989.2
15 21.06 ЮВ 1 20 км 1/1 1000 м
[Cu hum]
+30.4 +16.0 42 +33 +38 душно 1013.7 988.5
18 21.06 штиль 0 20 км ясно +26.0 +15.7 53 +29 +29 душно 1014.0 988.4 +31.5
21 21.06 штиль 0 н/о 4/0
[Ac trans]
+21.4 +15.7 70 +25 +25 комфорт 1015.3 989.3
00 22.06 штиль 0 н/о 5/0
[Ac cast]
+21.4 +14.5 65 +24 +24 комфорт 1015.3 989.3
03 22.06 штиль 0 20 км 3/0
[Ac cast]
+19.4 +14.2 72 +21 +21 комфорт 1015.6 989.4
06 22.06 штиль 0 20 км 3/0
[Ac trans]
+24.9 +15.5 56 +28 +37 жарко 1015.7 989.9 +19.0
09 22.06 штиль 0 20 км 6/3 1000 м
[Cu med, cong Ac trans]
+29.9 +15.9 43 +33 +45 душно 1015.6 990.3
12 22.06 штиль 0 20 км 4/4 1000 м
[Cu med, cong]
+31.7 +14.3 35 +33 +45 жарко 1014.9 989.7
15 22.06 штиль 0 20 км 4/3 1000 м
[Cu med, cong Ci fib]
+31.5 +13.7 34 +33 +37 жарко 1013.7 988.5
18 22.06 штиль 0 20 км 8/4 1000 м
[Cu med, cong Ci]
+26.9 +17.9 58 +31 +31 душно 1014.8 989.2 +32.2
21 22.06 СЗ 1 н/о ясно +23.2 +18.5 75 +29 +29 душно 1015.6 989.7
00 23.06 штиль 0 н/о ясно +20.2 +18.0 87 +23 +23 комфорт 1015.2 989.1
03 23.06 С 1 10 км 4/3 600 м
[Sc Ac trans]
+19.0 +17.3 90 +22 +22 комфорт 1015.6 989.3
06 23.06 СЗ 1 20 км 8/4 600 м
[Sc Ac trans]
+22.8 +18.3 76 +28 +32 душно 1015.8 989.9 +19.0
09 23.06 С 1 20 км ясно +28.8 +17.0 49 +33 +53 опасность
солнечного
удара
1014.8 989.4
12 23.06 штиль 0 20 км 3/3 1000 м
[Cu hum]
+31.6 +15.1 37 +34 +48 душно 1014.2 989.0
15 23.06 С 1 20 км гроза без осадков 6/6 960 м
[Cb cap]
+29.5 +17.8 49 +34 +36 очень
душно
1013.0 987.7
18 23.06 штиль 0 20 км в посл. час гроза 9/6 960 м
[Cb cap Cs]
+24.0 +16.0 61 +27 +27 жарко 1015.5 989.7 +32.4
21 23.06 штиль 0 н/о 8/0
[Ac lent]
+21.6 +17.4 77 +26 +26 душно 1016.3 990.2
00 24.06 С 1 н/о 5/0
[Ac lent]
+19.8 +16.4 81 +23 +23 комфорт 1016.6 990.4
03 24.06 С 1 20 км 7 баллов +19.4 +17.2 87
06 24.06 штиль 0 20 км 10/0
[Ac As]
+21.0 +17.8 82 +25 +28 комфорт 1018.1 991.9 +19.3
09 24.06 штиль 0 20 км 4 балла +25.6 +19.0 67
12 24.06 С 1 20 км 6/0
[Cc]
+29.1 +18.2 52 +34 +46 очень
душно
1018.3 992.8
15 24.06 штиль 0 20 км 4 балла +28.2 +20.7 64
18 24.06 штиль 0 20 км {гроза} 8/0
[Ci ing]
+23.7 +18.6 73 +28 +28 душно 1019.8 993.8 +30.0
21 24.06 С 1 н/о ясно +23.4 +18.1 72
00 25.06 С 1 н/о ясно +22.3 +16.8 71 +27 +27 душно 1021.6 995.5
03 25.06 С 2 20 км ясно +20.0 +15.0 73
06 25.06 СВ 2 20 км ясно +22.4 +16.4 69 +19.7
09 25.06 В 2 20 км 6 баллов +26.7 +16.9 55

 

Местоположение метеостанции Жашков (Черкасская область, Украина): широта 49.25 долгота 30.10 высота над уровнем моря 224 м.

В архиве по умолчанию представлена погода в Жашкове за последнюю неделю. Архивные данные за месяц целиком и за предыдущие месяцы, начиная с января 2011 года, Вы можете получить, выбрав интересующий диапазон дат из раскрывающегося списка и нажав кнопку "Ввод!".


*Определитесь, кто Вы:
робот инопланетянин человек

Внимание! Время в таблицах - всемирное. Для получения местного времени необходимо прибавить поправку, которая равна 2 ч.

Смотрите также архив погоды в соседних городах и на ближайших метеорологических станциях:

Погода в Умани (Черкасская область, Украина) (54 км)
Погода в Белой Церкви (Киевская область, Украина) (56 км)
Погода в Звенигородке (Черкасская область, Украина) (61 км)
Погода в Гайсине (Винницкая область, Украина) (71 км)
Погода в Мироновке (Киевская область, Украина) (80 км)
Погода в Фастове (Киевская область, Украина) (93 км)
Погода в Гайвороне (Кировоградская область, Украина) (102 км)
Погода в Виннице (Винницкая область, Украина) (109 км)
Погода в Белополе (Винницкая область, Украина) (109 км)
Погода в Каневе (Черкасская область, Украина) (116 км)

Пояснения к столбцам:

Ветер - указаны скорость ветра в м/с - средняя за 10 мин, порывы в срок и между сроками (в фигурных скобках) и направление, откуда дует ветер: С - северный, СВ - северо-восточный, В - восточный, ЮВ - юго-восточный, Ю - южный, ЮЗ - юго-западный, З - западный, СЗ - северо-западный.
Видимость - горизонтальная дальность видимости в метрах или километрах. При видимости от 1 до 10 км при отсутствии осадков обычно наблюдается дымка, при ухудшении видимости до 1 км и менее - туман. В сухую погоду видимость может ухудшаться дымом, пылью или мглою.
Явления - указаны атмосферные явления, наблюдавшиеся в срок или в последний час перед сроком; фигурными скобками обозначены явления, наблюдавшиеся между сроками (за 1-3 часа до срока); квадратными скобками обозначены град или гололедные отложения с указанием их диаметра в мм.
Облачность - указаны через наклонную черту общая и нижняя облачность в баллах и высота нижней границы облаков в метрах; квадратными скобками обозначены формы облаков: Ci - перистые, Cs - перисто-слоистые, Cc - перисто-кучевые, Ac - высококучевые, As - высокослоистые, Sc - слоисто-кучевые, Ns - слоисто-дождевые, Cu - кучевые, Cb - кучево-дождевые. Подробнее классификацию облаков см. в Атласе облаков (PDF).
T - Температура воздуха - температура, измеренная на высоте 2 м над землей.
Td - Температура точки росы - температура, при понижении до которой содержащийся в воздухе водяной пар достигнет насыщения.
f - Относительная влажность воздуха - влажноcть воздуха, измеренная на высоте 2 м над землей.
Te - Эффективная температура - температура, которую ощущает одетый по сезону человек в тени. Характеристика душности погоды. При расчете учитывается влияние влажности воздуха и скорости ветра на теплоощущения человека.
Tes - Эффективная температура на солнце - температура, которую ощущает человек, с поправкой на солнечный нагрев. Характеристика знойности погоды. Зависит от высоты солнца над горизонтом, облачности и скорости ветра. Ночью, в пасмурную погоду, а также при ветре 12 м/с и более поправка равна нулю.
P - Атмосферное давление - приведенное к уровню моря атмосферное давление.
Po - Атмосферное давление - измеренное на уровне метеостанции атмосферное давление.
Tmin - Минимальная температура - минимум температуры воздуха на высоте 2 м над землей.
Tmax - Максимальная температура - максимум температуры воздуха на высоте 2 м над землей.
R - Количество осадков - Количество выпавших осадков за период времени, мм. При наведении курсора мыши на число - период времени, за который выпало указанное количество осадков.
R24 - Количество осадков - Количество выпавших осадков за 24 часа, мм.
S - Снежный покров - Высота снежного покрова, см. При наведении курсора мыши на число - состояние снежного покрова и степень покрытия местности в баллах.